1537480801.03,27175,21.5,74490.3,2.37,-25.49,-25.65,0,*73
1537480802.3,27176,21.5,74488.5,2.39,-25.45,-25.55,0,*71
1537480803.54,27177,21.5,74488.0,2.37,-25.49,-25.55,0,*72
1537480804.78,27178,21.5,74488.0,2.37,-25.49,-25.55,0,*7D
1537480805.99,27179,21.5,74488.3,2.37,-25.49,-25.49,0,*71
1537480807.23,27180,21.5,74488.3,2.37,-25.49,-25.55,0,*7A
1537480808.47,27181,21.5,74490.8,2.37,-25.39,-25.55,0,*7C
1537480809.7,27182,21.5,74492.0,2.37,-25.49,-25.55,0,*78
1537480810.94,27183,21.5,74488.5,2.37,-25.49,-25.55,0,*79
1537480812.18,27184,21.5,74488.8,2.37,-25.49,-25.55,0,*7E
1537480813.4,27185,21.5,74488.0,2.37,-25.35,-25.45,0,*75
1537480814.62,27186,21.5,74486.3,2.37,-25.49,-25.49,0,*71
1537480815.83,27187,21.5,74488.5,2.37,-25.39,-25.39,0,*70
1537480817.06,27188,21.5,74490.8,2.37,-25.49,-25.55,0,*72
1537480818.28,27189,21.5,74488.0,2.37,-25.49,-25.49,0,*7E
1537480819.49,27190,21.5,74488.3,2.37,-25.49,-25.49,0,*76
1537480820.73,27191,21.5,74488.8,2.37,-25.49,-25.55,0,*7A
1537480821.97,27192,21.5,74488.0,2.37,-25.49,-25.55,0,*79
1537480823.18,27193,21.5,74488.8,2.37,-25.49,-25.65,0,*7B
1537480824.41,27194,21.5,74488.8,2.35,-25.49,-25.55,0,*7D
1537480825.65,27195,21.5,74490.8,2.37,-25.49,-25.55,0,*7E
1537480826.86,27196,21.5,74490.3,2.37,-25.49,-25.65,0,*7E
1537480828.13,27197,21.5,74490.3,2.37,-25.55,-25.55,0,*71
1537480829.36,27198,21.5,74492.5,2.37,-25.55,-25.65,0,*7D
1537480830.6,27199,21.5,74488.0,2.35,-25.55,-25.65,0,*7E
1537480831.86,27200,21.5,74488.0,2.33,-25.55,-25.61,0,*7F
1537480833.12,27201,21.5,74486.8,2.33,-25.61,-25.71,0,*78
1537480834.38,27202,21.5,74488.0,2.35,-25.55,-25.55,0,*7C
1537480835.59,27203,21.5,74488.5,2.35,-25.39,-25.49,0,*7A
1537480836.8,27204,21.5,74488.5,2.35,-25.49,-25.49,0,*7A
1537480838.0,27205,21.5,74490.5,2.35,-25.39,-25.49,0,*7C
1537480839.21,27206,21.5,74490.3,2.37,-25.49,-25.49,0,*7A
1537480840.42,27207,21.5,74488.0,2.35,-25.49,-25.39,0,*7E
1537480841.65,27208,21.5,74488.5,2.35,-25.49,-25.55,0,*7B
1537480842.86,27209,21.5,74488.8,2.35,-25.39,-25.49,0,*70
1537480844.07,27210,21.5,74488.3,2.37,-25.49,-25.49,0,*7D
1537480845.34,27211,21.5,74488.5,2.33,-25.55,-25.61,0,*7F
1537480846.6,27212,21.5,74488.3,2.35,-25.55,-25.55,0,*7D
1537480847.86,27213,21.5,74488.5,2.35,-25.55,-25.55,0,*7C
1537480849.11,27214,21.5,74488.8,2.33,-25.61,-25.55,0,*7A
1537480850.35,27215,21.5,74486.8,2.33,-25.61,-25.61,0,*7C
1537480851.6,27216,21.5,74484.8,2.33,-25.45,-25.61,0,*79
1537480852.8,27217,21.5,74488.5,2.35,-25.39,-25.49,0,*7F
1537480854.06,27218,21.5,74490.0,2.33,-25.45,-25.61,0,*77
1537480855.34,27219,21.5,74488.3,2.33,-25.55,-25.55,0,*70
1537480856.55,27220,21.5,74486.3,2.35,-25.49,-25.49,0,*7C
1537480857.8,27221,21.5,74488.5,2.35,-25.45,-25.55,0,*7C
1537480859.09,27222,21.5,74490.0,2.33,-25.55,-25.55,0,*78
1537480860.38,27223,21.5,74484.8,2.33,-25.55,-25.55,0,*79
1537480861.66,27224,21.5,74490.3,2.33,-25.55,-25.55,0,*7E
1537480862.95,27225,21.5,74486.0,2.33,-25.55,-25.55,0,*7F
1537480864.24,27226,21.5,74490.3,2.33,-25.55,-25.55,0,*7C
1537480865.53,27227,21.5,74488.3,2.33,-25.55,-25.55,0,*7D
1537480866.81,27228,21.5,74488.0,2.33,-25.55,-25.45,0,*73
1537480868.08,27229,21.5,74490.3,2.33,-25.55,-25.45,0,*72
1537480869.36,27230,21.5,74488.0,2.33,-25.45,-25.45,0,*7B
1537480870.63,27231,21.5,74490.3,2.33,-25.29,-25.29,0,*7A
1537480871.86,27232,21.5,74486.3,2.33,-25.39,-25.39,0,*79
1537480873.14,27233,21.5,74488.3,2.33,-25.55,-25.45,0,*79
1537480874.42,27234,21.5,74490.5,2.33,-25.55,-25.45,0,*7E
1537480875.65,27235,21.5,74488.5,2.33,-25.39,-25.39,0,*7E
1537480876.89,27236,21.5,74488.3,2.29,-25.39,-25.45,0,*7D
1537480878.14,27237,21.5,74488.0,2.33,-25.39,-25.45,0,*77
1537480879.4,27238,21.5,74486.8,2.33,-25.39,-25.29,0,*72
1537480880.62,27239,21.5,74488.0,2.33,-25.39,-25.39,0,*72
1537480881.89,27240,21.5,74490.8,2.33,-25.45,-25.45,0,*7C
1537480883.09,27241,21.5,74488.5,2.35,-25.39,-25.35,0,*77
1537480884.34,27242,21.5,74486.5,2.33,-25.29,-25.39,0,*7F
1537480885.61,27243,21.5,74490.8,2.33,-25.45,-25.45,0,*7F
1537480886.81,27244,21.5,74488.3,2.35,-25.23,-25.39,0,*75
1537480888.06,27245,21.5,74490.0,2.33,-25.45,-25.39,0,*72
1537480889.31,27246,21.5,74488.5,2.33,-25.45,-25.39,0,*71
1537480890.56,27247,21.5,74490.3,2.33,-25.39,-25.45,0,*70
1537480891.81,27248,21.5,74488.8,2.33,-25.39,-25.29,0,*75
1537480893.01,27249,21.5,74486.3,2.35,-25.39,-25.39,0,*73
1537480894.24,27250,21.5,74488.8,2.33,-25.39,-25.39,0,*7D
1537480895.47,27251,21.5,74490.8,2.33,-25.39,-25.39,0,*7C
1537480896.72,27252,21.5,74488.0,2.33,-25.29,-25.23,0,*75
1537480897.99,27253,21.5,74486.3,2.33,-25.45,-25.45,0,*7E
1537480899.22,27254,21.5,74484.5,2.33,-25.39,-25.39,0,*79
1537480900.49,27255,21.5,74490.0,2.33,-25.29,-25.29,0,*78
1537480901.71,27256,21.5,74490.5,2.35,-25.23,-25.29,0,*77
1537480902.99,27257,21.5,74488.5,2.33,-25.29,-25.29,0,*7A
1537480904.26,27258,21.5,74488.5,2.33,-25.29,-25.29,0,*75
1537480905.51,27259,21.5,74488.0,2.33,-25.39,-25.29,0,*75
1537480906.76,27260,21.5,74484.8,2.33,-25.29,-25.23,0,*74
1537480908.03,27261,21.5,74488.5,2.33,-25.29,-25.29,0,*7F
1537480909.26,27262,21.5,74488.0,2.33,-25.19,-25.23,0,*75
1537480910.48,27263,21.5,74488.3,2.33,-25.23,-25.23,0,*7D
1537480911.73,27264,21.5,74490.0,2.33,-25.39,-25.29,0,*7B
1537480913.0,27265,21.5,74488.0,2.33,-25.29,-25.29,0,*7B
1537480914.26,27266,21.5,74490.3,2.33,-25.29,-25.39,0,*79
1537480915.5,27267,21.5,74484.5,2.33,-25.29,-25.23,0,*73
1537480916.75,27268,21.5,74488.8,2.33,-25.39,-25.45,0,*7D
1537480918.02,27269,21.5,74486.8,2.29,-25.29,-25.29,0,*7C
1537480919.27,27270,21.5,74488.3,2.29,-25.23,-25.29,0,*7E
1537480920.49,27271,21.5,74490.8,2.29,-25.19,-25.23,0,*7C
1537480921.71,27272,21.5,74488.3,2.33,-25.19,-25.23,0,*74
1537480922.93,27273,21.5,74486.8,2.33,-25.09,-25.19,0,*7D
1537480924.16,27274,21.5,74486.3,2.33,-25.09,-25.19,0,*7A
1537480925.41,27275,21.5,74486.8,2.33,-25.03,-25.09,0,*70
1537480926.66,27276,21.5,74488.5,2.33,-24.87,-24.93,0,*7C
1537480927.92,27277,21.5,74486.3,2.33,-25.03,-25.09,0,*72
1537480929.16,27278,21.5,74484.5,2.33,-24.93,-25.03,0,*7F
1537480930.42,27279,21.5,74484.8,2.33,-25.03,-25.09,0,*7C
1537480931.64,27280,21.5,74486.8,2.33,-25.09,-25.19,0,*71
1537480932.92,27281,21.5,74486.3,2.33,-25.03,-25.03,0,*71
1537480934.14,27282,21.5,74486.8,2.33,-25.09,-25.09,0,*72
1537480935.34,27283,21.5,74484.5,2.35,-24.97,-24.97,0,*75
1537480936.54,27284,21.5,74486.3,2.35,-25.09,-25.09,0,*72
1537480937.77,27285,21.5,74486.8,2.35,-24.77,-24.87,0,*7C
1537480939.02,27286,21.5,74486.8,2.35,-24.83,-24.87,0,*74
1537480940.25,27287,21.5,74488.0,2.35,-24.83,-24.97,0,*74
1537480941.47,27288,21.5,74484.0,2.35,-24.93,-25.03,0,*76
1537480942.71,27289,21.5,74488.0,2.35,-24.87,-24.87,0,*7F
1537480943.94,27290,21.5,74486.8,2.37,-24.87,-24.97,0,*74
1537480945.16,27291,21.5,74486.8,2.33,-25.09,-24.97,0,*76
1537480946.42,27292,21.5,74484.3,2.35,-24.83,-24.87,0,*71
1537480947.61,27293,21.5,74486.3,2.35,-24.97,-24.97,0,*74
1537480948.87,27294,21.5,74486.3,2.35,-24.83,-24.87,0,*77
1537480950.11,27295,21.5,74484.0,2.33,-24.93,-25.03,0,*7C
1537480951.37,27296,21.5,74482.8,2.35,-24.71,-24.71,0,*71
1537480952.63,27297,21.5,74482.3,2.35,-24.71,-24.83,0,*7D
1537480953.88,27298,21.5,74482.8,2.35,-24.87,-24.87,0,*7F
1537480955.08,27299,21.5,74486.5,2.35,-25.09,-25.09,0,*7E
1537480956.31,27300,21.5,74482.8,2.35,-24.83,-24.97,0,*7A
1537480957.53,27301,21.5,74486.0,2.35,-24.87,-24.97,0,*7F
1537480958.8,27302,21.5,74486.0,2.35,-24.71,-24.71,0,*7D
1537480960.05,27303,21.5,74484.3,2.37,-24.67,-24.83,0,*74
1537480961.31,27304,21.5,74484.5,2.37,-24.83,-24.83,0,*79
1537480962.56,27305,21.5,74484.3,2.37,-24.87,-24.87,0,*78
1537480963.76,27306,21.5,74484.5,2.37,-24.97,-24.97,0,*7B
1537480964.99,27307,21.5,74484.5,2.37,-24.87,-24.97,0,*7B
1537480966.24,27308,21.5,74486.0,2.37,-24.87,-24.83,0,*71
1537480967.47,27309,21.5,74484.0,2.39,-24.61,-24.77,0,*7D
1537480968.7,27310,21.5,74486.5,2.37,-24.83,-24.97,0,*79
1537480969.96,27311,21.5,74480.0,2.35,-24.71,-24.83,0,*72
1537480971.22,27312,21.5,74488.0,2.37,-24.71,-24.83,0,*73
1537480972.48,27313,21.5,74484.0,2.37,-24.83,-24.83,0,*7F
1537480973.71,27314,21.5,74482.8,2.37,-24.67,-24.57,0,*7B
1537480974.97,27315,21.44,74478.8,2.37,-24.71,-24.83,0,*74
1537480976.23,27316,21.5,74480.3,2.37,-24.83,-24.87,0,*7E
1537480977.49,27317,21.5,74486.8,2.37,-24.83,-24.71,0,*76
1537480978.69,27318,21.5,74482.3,2.37,-24.97,-24.93,0,*70
1537480979.92,27319,21.5,74484.3,2.37,-24.97,-24.87,0,*74
1537480981.18,27320,21.5,74482.5,2.37,-24.71,-24.87,0,*76
1537480982.44,27321,21.5,74480.8,2.37,-24.83,-24.87,0,*7A
1537480983.67,27322,21.5,74486.3,2.37,-25.03,-25.13,0,*7C
1537480984.87,27323,21.5,74484.3,2.37,-24.97,-25.13,0,*71
1537480986.13,27324,21.5,74484.0,2.39,-24.77,-24.83,0,*7E
1537480987.35,27325,21.5,74482.3,2.39,-24.77,-24.93,0,*7E
1537480988.61,27326,21.5,74482.5,2.37,-24.83,-24.83,0,*79
1537480989.86,27327,21.5,74482.5,2.39,-24.67,-24.77,0,*77
1537480991.11,27328,21.5,74484.3,2.39,-24.67,-24.77,0,*78
1537480992.37,27329,21.5,74484.5,2.37,-24.71,-24.67,0,*71
1537480993.6,27330,21.5,74484.0,2.39,-24.61,-24.77,0,*77
1537480994.86,27331,21.5,74484.3,2.37,-24.71,-24.83,0,*72
1537480996.13,27332,21.5,74484.5,2.37,-24.71,-24.87,0,*75
1537480997.33,27333,21.5,74482.0,2.37,-24.57,-24.57,0,*7D
1537480998.57,27334,21.5,74484.5,2.39,-24.51,-24.61,0,*77
1537480999.84,27335,21.5,74484.8,2.39,-24.67,-24.67,0,*75
1537481001.04,27336,21.5,74484.5,2.41,-24.57,-24.57,0,*79
1537481002.29,27337,21.5,74482.3,2.39,-24.61,-24.67,0,*71
1537481003.52,27338,21.5,74480.5,2.39,-24.61,-24.51,0,*7B
1537481004.79,27339,21.44,74482.8,2.39,-24.67,-24.67,0,*79
1537481006.01,27340,21.5,74486.3,2.39,-24.61,-24.77,0,*70
1537481007.29,27341,21.5,74484.5,2.39,-24.67,-24.67,0,*76
1537481008.51,27342,21.5,74480.3,2.39,-24.61,-24.61,0,*75
1537481009.76,27343,21.5,74484.0,2.39,-24.67,-24.93,0,*7F
1537481010.99,27344,21.5,74486.3,2.39,-24.61,-24.51,0,*70
1537481012.22,27345,21.5,74484.3,2.41,-24.61,-24.71,0,*7C
1537481013.46,27346,21.5,74482.0,2.41,-24.61,-24.71,0,*7F
1537481014.73,27347,21.5,74484.5,2.41,-24.71,-24.71,0,*7F
1537481015.93,27348,21.5,74482.0,2.41,-24.61,-24.61,0,*70
1537481017.19,27349,21.5,74482.3,2.43,-24.77,-24.87,0,*7C
1537481018.4,27350,21.5,74484.5,2.41,-24.77,-24.77,0,*79
1537481019.64,27351,21.5,74484.0,2.41,-24.71,-24.77,0,*7E
1537481020.88,27352,21.5,74480.8,2.43,-24.57,-24.61,0,*7C
1537481022.08,27353,21.5,74484.0,2.41,-24.57,-24.57,0,*7A
1537481023.31,27354,21.5,74482.8,2.41,-24.61,-24.71,0,*7C
1537481024.55,27355,21.5,74484.0,2.41,-24.77,-24.87,0,*73
1537481025.82,27356,21.5,74484.0,2.41,-24.71,-24.71,0,*7F
1537481027.05,27357,21.5,74486.0,2.41,-24.61,-24.71,0,*7F
1537481028.26,27358,21.5,74480.3,2.41,-24.77,-24.77,0,*71
1537481029.53,27359,21.5,74484.0,2.41,-24.71,-24.87,0,*79
1537481030.76,27360,21.5,74482.3,2.43,-24.57,-24.57,0,*78
1537481032.02,27361,21.5,74482.8,2.43,-24.61,-24.71,0,*78
1537481033.25,27362,21.5,74482.5,2.41,-24.61,-24.71,0,*79
1537481034.48,27363,21.5,74484.3,2.43,-24.57,-24.47,0,*7A
1537481035.72,27364,21.5,74482.5,2.43,-24.61,-24.61,0,*7C
1537481036.92,27365,21.5,74484.3,2.41,-24.57,-24.61,0,*7A
1537481038.13,27366,21.5,74484.8,2.41,-24.57,-24.61,0,*79
1537481039.37,27367,21.5,74484.5,2.43,-24.57,-24.61,0,*7A
1537481040.6,27368,21.5,74482.3,2.43,-24.57,-24.61,0,*75
1537481041.86,27369,21.5,74484.3,2.43,-24.61,-24.71,0,*70
1537481043.08,27370,21.5,74484.5,2.45,-24.57,-24.67,0,*7C
1537481044.29,27371,21.44,74482.8,2.45,-24.51,-24.57,0,*78
1537481045.52,27372,21.5,74482.8,2.45,-24.57,-24.71,0,*79
1537481046.78,27373,21.5,74482.8,2.45,-24.71,-24.67,0,*7B
1537481047.98,27374,21.5,74484.3,2.45,-24.51,-24.57,0,*7D
1537481049.24,27375,21.5,74484.5,2.45,-24.71,-24.83,0,*77
1537481050.5,27376,21.5,74480.3,2.45,-24.71,-24.87,0,*70
1537481051.76,27377,21.5,74486.8,2.45,-24.67,-24.87,0,*76
1537481053.01,27378,21.5,74484.0,2.45,-24.67,-24.71,0,*70
1537481054.24,27379,21.44,74482.0,2.43,-24.61,-24.61,0,*70
1537481055.51,27380,21.5,74486.8,2.43,-24.71,-24.77,0,*70
1537481056.74,27381,21.5,74482.8,2.45,-24.57,-24.67,0,*72
1537481057.97,27382,21.5,74486.5,2.45,-24.57,-24.71,0,*76
1537481059.21,27383,21.5,74482.8,2.45,-24.87,-24.83,0,*77
1537481060.47,27384,21.5,74484.0,2.45,-24.83,-24.87,0,*70
1537481061.72,27385,21.5,74484.5,2.45,-24.67,-24.71,0,*72
1537481062.95,27386,21.5,74484.0,2.45,-24.57,-24.67,0,*75
1537481064.2,27387,21.5,74482.8,2.45,-24.67,-24.71,0,*70
1537481065.46,27388,21.5,74480.5,2.45,-24.71,-24.83,0,*75
1537481066.72,27389,21.5,74480.8,2.45,-24.71,-24.83,0,*74
1537481067.98,27390,21.5,74486.3,2.45,-24.83,-24.87,0,*75
1537481069.23,27391,21.5,74482.0,2.45,-24.67,-24.83,0,*7A
1537481070.49,27392,21.5,74480.5,2.45,-24.71,-24.71,0,*73
1537481071.75,27393,21.5,74484.0,2.45,-24.71,-24.83,0,*7F
1537481073.03,27394,21.5,74482.8,2.47,-24.67,-24.71,0,*70
1537481074.29,27395,21.5,74486.0,2.45,-24.71,-24.83,0,*79
1537481075.55,27396,21.5,74484.3,2.45,-24.83,-24.83,0,*77
1537481076.81,27397,21.5,74482.5,2.45,-24.71,-24.71,0,*76
1537481078.08,27398,21.5,74484.5,2.47,-24.67,-24.83,0,*71
1537481079.36,27399,21.5,74482.5,2.47,-24.83,-24.87,0,*7E
1537481080.59,27400,21.5,74484.0,2.45,-24.83,-24.97,0,*7A
1537481081.86,27401,21.5,74486.0,2.47,-24.87,-25.03,0,*71
1537481083.12,27402,21.44,74482.8,2.45,-24.83,-24.87,0,*79
1537481084.39,27403,21.5,74484.8,2.47,-24.87,-24.87,0,*7E
1537481085.65,27404,21.44,74480.5,2.45,-24.83,-24.87,0,*7F
1537481086.9,27405,21.5,74482.8,2.45,-24.83,-24.87,0,*7E
1537481088.16,27406,21.5,74482.8,2.45,-24.71,-24.83,0,*74
1537481089.43,27407,21.5,74480.3,2.47,-24.67,-24.67,0,*7A
1537481090.7,27408,21.5,74482.0,2.47,-24.67,-24.67,0,*75
1537481091.93,27409,21.5,74486.0,2.47,-24.57,-24.57,0,*74
1537481093.15,27410,21.5,74486.3,2.45,-24.57,-24.67,0,*7D
1537481094.41,27411,21.44,74482.8,2.47,-24.57,-24.71,0,*79
1537481095.68,27412,21.44,74480.0,2.47,-24.67,-24.83,0,*74
1537481096.96,27413,21.5,74482.0,2.47,-24.67,-24.71,0,*78
1537481098.24,27414,21.5,74484.5,2.47,-24.71,-24.87,0,*71
1537481099.53,27415,21.5,74482.5,2.47,-24.71,-24.87,0,*70
1537481100.81,27416,21.5,74486.8,2.47,-24.71,-24.87,0,*73
1537481102.06,27417,21.5,74484.8,2.47,-24.83,-24.97,0,*7E
1537481103.31,27418,21.5,74484.8,2.45,-24.67,-24.83,0,*7C
1537481104.59,27419,21.5,74486.3,2.47,-24.83,-24.87,0,*71
1537481105.87,27420,21.5,74482.8,2.47,-24.67,-24.71,0,*78
1537481107.12,27421,21.5,74482.0,2.47,-24.83,-24.97,0,*7B
1537481108.4,27422,21.5,74480.0,2.47,-24.71,-24.83,0,*70
1537481109.68,27423,21.5,74484.5,2.47,-24.83,-24.83,0,*7C
1537481110.95,27424,21.44,74482.5,2.47,-24.87,-24.87,0,*7B
1537481112.18,27425,21.5,74484.5,2.49,-24.83,-24.93,0,*75
1537481113.41,27426,21.5,74482.0,2.49,-24.83,-24.93,0,*76
1537481114.64,27427,21.5,74484.5,2.49,-24.77,-24.83,0,*7D
1537481115.84,27428,21.5,74484.8,2.49,-24.61,-24.77,0,*7E
1537481117.1,27429,21.44,74482.3,2.49,-24.83,-24.83,0,*78
1537481118.33,27430,21.5,74482.8,2.49,-24.83,-24.93,0,*71
1537481119.58,27431,21.5,74486.8,2.49,-24.67,-24.83,0,*7B
1537481120.78,27432,21.44,74484.5,2.49,-24.77,-24.93,0,*78
1537481121.98,27433,21.44,74482.8,2.49,-24.77,-24.93,0,*79
1537481123.21,27434,21.44,74482.0,2.49,-24.77,-24.83,0,*7F
1537481124.46,27435,21.44,74482.8,2.49,-24.67,-24.83,0,*7F
1537481125.69,27436,21.44,74480.8,2.49,-24.83,-24.93,0,*77
1537481126.92,27437,21.5,74484.0,2.49,-24.83,-24.93,0,*76
1537481128.13,27438,21.5,74484.8,2.49,-24.77,-24.77,0,*78
1537481129.37,27439,21.5,74484.0,2.51,-24.61,-24.67,0,*76
1537481130.6,27440,21.44,74482.8,2.49,-24.83,-24.93,0,*76
1537481131.82,27441,21.44,74484.0,2.51,-24.93,-24.93,0,*7F
1537481133.01,27442,21.44,74484.0,2.49,-24.93,-24.93,0,*75
1537481134.23,27443,21.44,74486.0,2.49,-24.83,-24.97,0,*71
1537481135.43,27444,21.44,74482.8,2.49,-24.93,-24.97,0,*77
1537481136.68,27445,21.44,74484.5,2.49,-25.03,-25.03,0,*72
1537481137.93,27446,21.5,74482.8,2.51,-25.03,-24.97,0,*74
1537481139.15,27447,21.5,74484.3,2.49,-24.83,-24.93,0,*71
1537481140.37,27448,21.5,74486.0,2.49,-24.93,-25.03,0,*77
1537481141.6,27449,21.44,74480.5,2.49,-24.83,-24.97,0,*7B
1537481142.79,27450,21.5,74484.0,2.49,-24.93,-24.97,0,*72
1537481144.04,27451,21.5,74484.3,2.51,-24.77,-24.83,0,*75
1537481145.3,27452,21.5,74484.3,2.51,-24.77,-24.83,0,*76
1537481146.52,27453,21.44,74482.3,2.51,-24.77,-24.93,0,*76
1537481147.77,27454,21.44,74482.8,2.49,-24.67,-24.67,0,*72
1537481149.02,27455,21.44,74482.8,2.51,-24.61,-24.83,0,*76
1537481150.27,27456,21.44,74482.8,2.51,-24.83,-24.93,0,*78
1537481151.52,27457,21.5,74484.8,2.51,-25.03,-25.13,0,*79
1537481152.8,27458,21.44,74482.8,2.51,-25.03,-25.03,0,*77
1537481154.05,27459,21.44,74484.0,2.49,-25.03,-25.03,0,*7F
1537481155.25,27460,21.44,74482.0,2.49,-24.77,-24.93,0,*7F
1537481156.5,27461,21.5,74486.0,2.51,-24.67,-24.77,0,*7C
1537481157.75,27462,21.44,74480.5,2.51,-24.83,-24.93,0,*7F
1537481158.98,27463,21.44,74484.0,2.49,-24.83,-24.93,0,*77
1537481160.24,27464,21.5,74484.3,2.51,-24.83,-24.93,0,*79
1537481161.43,27465,21.44,74482.8,2.49,-24.93,-24.93,0,*70
1537481162.67,27466,21.44,74482.5,2.51,-24.97,-25.03,0,*76
1537481163.92,27467,21.44,74484.8,2.51,-25.03,-25.13,0,*7A
1537481165.14,27468,21.44,74484.8,2.49,-24.93,-25.03,0,*75
1537481166.42,27469,21.5,74486.5,2.51,-25.03,-25.03,0,*75
1537481167.66,27470,21.44,74484.0,2.51,-25.29,-25.19,0,*7E
1537481168.89,27471,21.44,74482.3,2.51,-25.35,-25.35,0,*7C
1537481170.11,27472,21.5,74484.0,2.51,-25.13,-25.13,0,*7F
1537481171.34,27473,21.44,74480.0,2.51,-25.13,-25.19,0,*74
1537481172.56,27474,21.5,74486.3,2.51,-25.13,-25.19,0,*73
1537481173.79,27475,21.5,74484.5,2.51,-25.13,-25.13,0,*78
1537481175.04,27476,21.44,74484.5,2.51,-25.13,-25.29,0,*72
1537481176.26,27477,21.44,74484.3,2.49,-25.19,-25.29,0,*70
1537481177.51,27478,21.44,74486.5,2.49,-25.29,-25.29,0,*7C
1537481178.74,27479,21.44,74486.0,2.51,-25.13,-25.13,0,*74
1537481179.99,27480,21.44,74482.0,2.49,-25.03,-25.03,0,*7B
1537481181.22,27481,21.44,74486.3,2.51,-25.13,-25.19,0,*79
1537481182.44,27482,21.44,74486.3,2.49,-25.19,-25.29,0,*7A
1537481183.67,27483,21.44,74484.3,2.51,-25.13,-25.19,0,*7B
1537481184.89,27484,21.44,74486.0,2.51,-25.13,-25.19,0,*7C
1537481186.14,27485,21.44,74482.3,2.49,-25.29,-25.29,0,*7E
1537481187.34,27486,21.44,74484.3,2.49,-25.19,-25.35,0,*73
1537481188.56,27487,21.44,74486.0,2.51,-25.19,-25.35,0,*7B
1537481189.8,27488,21.5,74486.8,2.51,-25.19,-25.29,0,*79
1537481191.08,27489,21.5,74484.8,2.51,-25.29,-25.29,0,*7B
1537481192.28,27490,21.44,74480.3,2.49,-25.13,-25.13,0,*7A
1537481193.51,27491,21.44,74484.0,2.49,-25.03,-25.19,0,*70
1537481194.73,27492,21.44,74484.8,2.49,-25.29,-25.35,0,*75
1537481195.95,27493,21.44,74482.3,2.49,-24.93,-25.03,0,*71
1537481197.15,27494,21.44,74486.0,2.49,-25.13,-25.19,0,*74
1537481198.38,27495,21.44,74482.0,2.49,-25.03,-25.19,0,*74
1537481199.6,27496,21.44,74484.5,2.49,-25.29,-25.35,0,*71
1537481200.83,27497,21.44,74484.0,2.49,-25.13,-25.29,0,*74
1537481202.03,27498,21.44,74482.5,2.49,-25.13,-25.35,0,*76
1537481203.25,27499,21.44,74484.5,2.49,-25.19,-25.29,0,*70
1537481204.48,27500,21.44,74482.8,2.49,-25.19,-25.29,0,*71
1537481205.7,27501,21.5,74484.8,2.49,-25.29,-25.35,0,*7E
1537481206.95,27502,21.5,74486.5,2.49,-25.29,-25.45,0,*7A
1537481208.19,27503,21.44,74484.0,2.49,-25.29,-25.45,0,*7B
1537481209.44,27504,21.44,74486.5,2.49,-25.29,-25.45,0,*7C
1537481210.69,27505,21.44,74480.5,2.49,-25.29,-25.45,0,*7D
1537481211.94,27506,21.44,74484.3,2.49,-25.29,-25.29,0,*74
1537481213.16,27507,21.44,74480.8,2.49,-25.19,-25.29,0,*76
1537481214.38,27508,21.44,74486.3,2.47,-25.35,-25.39,0,*78
1537481215.61,27509,21.44,74482.5,2.47,-25.23,-25.49,0,*79
1537481216.87,27510,21.44,74480.8,2.47,-25.49,-25.55,0,*70
1537481218.08,27511,21.44,74486.0,2.49,-25.49,-25.65,0,*7C
1537481219.31,27512,21.5,74484.8,2.47,-25.49,-25.65,0,*71
1537481220.54,27513,21.44,74484.0,2.47,-25.39,-25.65,0,*77
1537481221.77,27514,21.44,74486.3,2.47,-25.49,-25.65,0,*77
1537481223.06,27515,21.44,74484.8,2.47,-25.55,-25.71,0,*7E
1537481224.31,27516,21.44,74486.8,2.47,-25.55,-25.65,0,*78
1537481225.57,27517,21.44,74486.3,2.47,-25.55,-25.65,0,*79
1537481226.83,27518,21.44,74480.8,2.45,-25.55,-25.55,0,*77
1537481228.09,27519,21.44,74486.5,2.47,-25.55,-25.65,0,*77
1537481229.3,27520,21.44,74486.8,2.45,-25.39,-25.65,0,*75
1537481230.56,27521,21.44,74486.8,2.45,-25.55,-25.71,0,*7B
1537481231.82,27522,21.5,74486.5,2.47,-25.65,-25.71,0,*79
1537481233.05,27523,21.44,74486.3,2.45,-25.55,-25.65,0,*7C
1537481234.29,27524,21.44,74484.5,2.45,-25.55,-25.65,0,*7B
1537481235.52,27525,21.44,74486.3,2.47,-25.49,-25.65,0,*75
1537481236.73,27526,21.44,74482.5,2.45,-25.49,-25.65,0,*74
1537481237.94,27527,21.44,74486.5,2.45,-25.49,-25.65,0,*75
1537481239.2,27528,21.44,74484.8,2.43,-25.55,-25.61,0,*75
1537481240.5,27529,21.44,74486.3,2.43,-25.55,-25.71,0,*75
1537481241.75,27530,21.44,74484.5,2.43,-25.45,-25.61,0,*7D
1537481243.01,27531,21.44,74480.5,2.43,-25.45,-25.61,0,*7C
1537481244.28,27532,21.44,74482.8,2.43,-25.55,-25.61,0,*7E
1537481245.53,27533,21.44,74484.0,2.43,-25.45,-25.61,0,*7E
1537481246.82,27534,21.44,74484.0,2.43,-25.45,-25.55,0,*7E
1537481248.07,27535,21.44,74482.5,2.43,-25.45,-25.61,0,*78
1537481249.35,27536,21.44,74486.8,2.43,-25.45,-25.55,0,*7C
1537481250.63,27537,21.44,74482.5,2.43,-25.45,-25.55,0,*7D
1537481251.92,27538,21.44,74484.0,2.43,-25.55,-25.45,0,*72
1537481253.19,27539,21.44,74486.3,2.43,-25.55,-25.61,0,*75
1537481254.47,27540,21.44,74482.0,2.43,-25.45,-25.71,0,*7B
1537481255.76,27541,21.5,74486.5,2.43,-25.55,-25.75,0,*7F
1537481256.99,27542,21.44,74486.0,2.41,-25.61,-25.71,0,*7D
1537481258.21,27543,21.44,74484.0,2.41,-25.61,-25.61,0,*7D
1537481259.46,27544,21.44,74484.3,2.41,-25.45,-25.75,0,*79
1537481260.75,27545,21.44,74486.0,2.43,-25.55,-25.75,0,*7B
1537481262.01,27546,21.44,74484.0,2.43,-25.61,-25.75,0,*7F
1537481263.25,27547,21.44,74488.3,2.41,-25.61,-25.75,0,*7C
1537481264.51,27548,21.44,74484.8,2.43,-25.61,-25.75,0,*71
1537481265.74,27549,21.44,74486.8,2.41,-25.71,-25.91,0,*79
1537481266.98,27550,21.44,74484.0,2.41,-25.61,-25.71,0,*7E
1537481268.24,27551,21.44,74486.3,2.41,-25.71,-25.75,0,*7A
1537481269.48,27552,21.44,74484.8,2.41,-25.61,-25.75,0,*78
1537481270.71,27553,21.44,74486.5,2.41,-25.61,-25.75,0,*79
1537481271.97,27554,21.44,74482.5,2.41,-25.45,-25.75,0,*78
1537481273.2,27555,21.44,74484.3,2.39,-25.61,-25.65,0,*71
1537481274.47,27556,21.44,74486.0,2.39,-25.75,-25.81,0,*7D
1537481275.71,27557,21.44,74486.3,2.41,-25.55,-25.61,0,*7F
1537481276.99,27558,21.44,74484.0,2.39,-25.75,-25.81,0,*73
1537481278.22,27559,21.44,74484.8,2.39,-25.61,-25.65,0,*7D
1537481279.45,27560,21.44,74486.5,2.39,-25.61,-25.65,0,*77
1537481280.69,27561,21.44,74484.0,2.39,-25.49,-25.49,0,*72
1537481281.94,27562,21.44,74484.5,2.39,-25.45,-25.49,0,*7D
1537481283.17,27563,21.44,74480.0,2.39,-25.49,-25.65,0,*7E
1537481284.4,27564,21.44,74484.8,2.39,-25.49,-25.49,0,*77
1537481285.65,27565,21.44,74486.8,2.39,-25.45,-25.49,0,*7A
1537481286.89,27566,21.44,74486.5,2.39,-25.49,-25.65,0,*7B
1537481288.12,27567,21.44,74482.8,2.39,-25.61,-25.65,0,*70
1537481289.35,27568,21.44,74480.5,2.37,-25.65,-25.81,0,*7F
1537481290.6,27569,21.44,74480.8,2.39,-25.65,-25.81,0,*70
1537481291.83,27570,21.44,74482.3,2.37,-25.65,-25.71,0,*79
1537481293.06,27571,21.44,74480.8,2.37,-25.65,-25.81,0,*77
1537481294.3,27572,21.44,74486.3,2.39,-25.49,-25.61,0,*7A
1537481295.53,27573,21.44,74484.0,2.39,-25.49,-25.61,0,*7B
1537481296.8,27574,21.44,74484.3,2.37,-25.55,-25.71,0,*7E
1537481298.03,27575,21.44,74484.3,2.37,-25.65,-25.71,0,*7C
1537481299.28,27576,21.44,74480.5,2.39,-25.61,-25.81,0,*7A
1537481300.49,27577,21.44,74484.3,2.37,-25.65,-25.87,0,*77
1537481301.72,27578,21.44,74484.5,2.37,-25.75,-25.87,0,*79
1537481302.98,27579,21.44,74484.8,2.37,-25.71,-25.81,0,*7A
1537481304.21,27580,21.44,74482.0,2.37,-25.71,-25.87,0,*7A
1537481305.47,27581,21.44,74484.5,2.39,-25.49,-25.75,0,*73
1537481306.7,27582,21.44,74484.8,2.37,-25.65,-25.81,0,*7B
1537481307.96,27583,21.44,74486.3,2.37,-25.55,-25.81,0,*79
1537481309.2,27584,21.44,74484.5,2.37,-25.55,-25.65,0,*74
1537481310.43,27585,21.44,74480.5,2.39,-25.49,-25.65,0,*76
1537481311.68,27586,21.44,74482.0,2.35,-25.55,-25.81,0,*7E